| time (UTC) | temp C | wind direction | speed KPH | gust KPH | rain 1hr cm | rain 24hr cm | rain mn cm | humidity % | barometer mb |
| 20260506125123 | 11 | 209 | 0.0 | 0.0 | 0.00 | 0.00 | 0.00 | 98 | 1019.4 |
| 20260506124621 | 11 | 212 | 0.0 | 0.0 | 0.00 | 0.00 | 0.00 | 98 | 1019.3 |
| 20260506124118 | 11 | 202 | 0.0 | 0.0 | 0.00 | 0.00 | 0.00 | 98 | 1019.1 |
| 20260506123616 | 11 | 210 | 0.0 | 0.0 | 0.00 | 0.00 | 0.00 | 98 | 1019.3 |
| 20260506123114 | 11 | 218 | 0.0 | 0.0 | 0.00 | 0.00 | 0.00 | 98 | 1019.3 |
| 20260506122610 | 11 | 224 | 0.0 | 0.0 | 0.00 | 0.00 | 0.00 | 98 | 1019.1 |
| 20260506122108 | 11 | 225 | 0.0 | 0.0 | 0.00 | 0.00 | 0.00 | 98 | 1019.3 |
| 20260506121606 | 11 | 214 | 0.0 | 0.0 | 0.00 | 0.00 | 0.00 | 98 | 1019.2 |
| 20260506121102 | 11 | 225 | 0.0 | 0.0 | 0.00 | 0.00 | 0.00 | 98 | 1019.1 |
| 20260506120600 | 11 | 227 | 0.0 | 0.0 | 0.00 | 0.00 | 0.00 | 98 | 1019.1 |
| 20260506120057 | 11 | 224 | 0.0 | 0.0 | 0.00 | 0.00 | 0.00 | 98 | 1019.0 |
| 20260506115555 | 11 | 224 | 0.0 | 0.0 | 0.00 | 0.00 | 0.00 | 98 | 1019.0 |
| 20260506115053 | 11 | 222 | 0.0 | 0.0 | 0.00 | 0.00 | 0.00 | 98 | 1019.0 |
| 20260506114550 | 11 | 227 | 0.0 | 0.0 | 0.00 | 0.00 | 0.00 | 98 | 1019.0 |
| 20260506114048 | 11 | 229 | 0.0 | 0.0 | 0.00 | 0.00 | 0.00 | 98 | 1019.1 |
| 20260506113546 | 11 | 230 | 0.0 | 0.0 | 0.00 | 0.00 | 0.00 | 98 | 1019.0 |
| 20260506113043 | 11 | 228 | 0.0 | 0.0 | 0.00 | 0.00 | 0.00 | 98 | 1018.8 |
| 20260506112539 | 11 | 214 | 0.0 | 0.0 | 0.00 | 0.00 | 0.00 | 98 | 1019.0 |
| 20260506112037 | 11 | 226 | 0.0 | 0.0 | 0.00 | 0.00 | 0.00 | 98 | 1019.0 |
| 20260506111535 | 11 | 230 | 0.0 | 0.0 | 0.00 | 0.00 | 0.00 | 98 | 1018.8 |
| 20260506111032 | 11 | 230 | 0.0 | 0.0 | 0.00 | 0.00 | 0.00 | 98 | 1018.8 |
| 20260506110530 | 11 | 232 | 0.0 | 0.0 | 0.00 | 0.00 | 0.00 | 97 | 1018.7 |
| 20260506110027 | 11 | 216 | 0.0 | 0.0 | 0.00 | 0.00 | 0.00 | 97 | 1018.7 |
| 20260506105522 | 11 | 224 | 0.0 | 0.0 | 0.00 | 0.00 | 0.00 | 97 | 1018.8 |
| 20260506105020 | 11 | 223 | 0.0 | 0.0 | 0.00 | 0.00 | 0.00 | 97 | 1018.8 |
| 20260506104518 | 11 | 223 | 0.0 | 0.0 | 0.00 | 0.00 | 0.00 | 97 | 1018.6 |
| 20260506104016 | 11 | 227 | 0.0 | 0.0 | 0.00 | 0.00 | 0.00 | 97 | 1018.6 |
| 20260506103513 | 11 | 239 | 0.0 | 0.0 | 0.00 | 0.00 | 0.00 | 98 | 1018.6 |
| 20260506103009 | 11 | 220 | 0.0 | 0.0 | 0.00 | 0.00 | 0.00 | 98 | 1018.7 |
| 20260506102508 | 11 | 228 | 0.0 | 0.0 | 0.00 | 0.00 | 0.00 | 98 | 1018.5 |
| 20260506102005 | 11 | 231 | 0.0 | 0.0 | 0.00 | 0.00 | 0.00 | 98 | 1018.5 |
| 20260506101501 | 11 | 234 | 0.0 | 0.0 | 0.00 | 0.00 | 0.00 | 98 | 1018.4 |
| 20260506100958 | 11 | 226 | 0.0 | 0.0 | 0.00 | 0.00 | 0.00 | 98 | 1018.4 |
| 20260506100457 | 11 | 219 | 0.0 | 0.0 | 0.00 | 0.00 | 0.00 | 98 | 1018.6 |
| 20260506095954 | 11 | 226 | 0.0 | 0.0 | 0.00 | 0.00 | 0.00 | 98 | 1018.4 |
| 20260506095453 | 11 | 215 | 0.0 | 0.0 | 0.00 | 0.00 | 0.00 | 98 | 1018.4 |
| 20260506094948 | 11 | 232 | 0.0 | 0.0 | 0.00 | 0.00 | 0.00 | 98 | 1018.5 |
| 20260506094447 | 11 | 232 | 0.0 | 0.0 | 0.00 | 0.00 | 0.00 | 98 | 1018.5 |
| 20260506093944 | 11 | 232 | 0.0 | 0.0 | 0.00 | 0.00 | 0.00 | 98 | 1018.4 |
| 20260506093442 | 11 | 225 | 0.0 | 0.0 | 0.00 | 0.00 | 0.00 | 98 | 1018.4 |
| 20260506092940 | 11 | 209 | 0.0 | 0.0 | 0.00 | 0.00 | 0.00 | 98 | 1018.4 |
| 20260506092437 | 11 | 212 | 0.0 | 0.0 | 0.00 | 0.00 | 0.00 | 98 | 1018.4 |
| 20260506091934 | 11 | 182 | 0.0 | 0.0 | 0.00 | 0.00 | 0.00 | 98 | 1018.4 |
| 20260506091432 | 11 | 202 | 0.0 | 0.0 | 0.00 | 0.00 | 0.00 | 98 | 1018.2 |
| 20260506090929 | 11 | 214 | 0.0 | 0.0 | 0.00 | 0.00 | 0.00 | 98 | 1018.4 |
| 20260506090426 | 11 | 213 | 0.0 | 0.0 | 0.00 | 0.00 | 0.00 | 98 | 1018.5 |
| 20260506085923 | 11 | 214 | 0.0 | 0.0 | 0.00 | 0.00 | 0.00 | 97 | 1018.5 |
| 20260506085420 | 11 | 214 | 0.0 | 0.0 | 0.00 | 0.00 | 0.00 | 97 | 1018.5 |
| 20260506084916 | 11 | 222 | 0.0 | 0.0 | 0.00 | 0.00 | 0.00 | 97 | 1018.4 |
| 20260506084413 | 11 | 225 | 0.0 | 0.0 | 0.00 | 0.00 | 0.00 | 96 | 1018.6 |
| 20260506083909 | 11 | 235 | 0.0 | 0.0 | 0.00 | 0.00 | 0.00 | 96 | 1018.6 |
| 20260506083407 | 11 | 233 | 0.0 | 0.0 | 0.00 | 0.00 | 0.00 | 97 | 1018.5 |
| 20260506082904 | 11 | 229 | 0.0 | 0.0 | 0.00 | 0.00 | 0.00 | 97 | 1018.4 |
| 20260506082401 | 11 | 229 | 0.0 | 0.0 | 0.00 | 0.00 | 0.00 | 97 | 1018.4 |
| 20260506081856 | 11 | 225 | 0.0 | 0.0 | 0.00 | 0.00 | 0.00 | 96 | 1018.4 |
| 20260506081355 | 11 | 224 | 0.0 | 0.0 | 0.00 | 0.00 | 0.00 | 96 | 1018.5 |
| 20260506080852 | 11 | 221 | 0.0 | 0.0 | 0.00 | 0.00 | 0.00 | 95 | 1018.4 |
| 20260506080349 | 11 | 226 | 0.0 | 0.0 | 0.00 | 0.00 | 0.00 | 95 | 1018.5 |
| 20260506073333 | 12 | 228 | 0.0 | 1.6 | 0.00 | 0.00 | 0.00 | 94 | 1018.2 |
| 20260506072829 | 12 | 235 | 0.0 | 0.0 | 0.00 | 0.00 | 0.00 | 93 | 1018.2 |
| 20260506072327 | 12 | 232 | 0.0 | 0.0 | 0.00 | 0.00 | 0.00 | 92 | 1018.0 |
| 20260506071825 | 12 | 188 | 0.0 | 0.0 | 0.00 | 0.00 | 0.00 | 92 | 1017.9 |
| 20260506071323 | 12 | 233 | 0.0 | 0.0 | 0.00 | 0.00 | 0.00 | 92 | 1017.9 |
| 20260506070819 | 12 | 224 | 0.0 | 0.0 | 0.00 | 0.00 | 0.00 | 93 | 1018.0 |
| 20260506070316 | 12 | 220 | 0.0 | 0.0 | 0.00 | 0.00 | 0.00 | 92 | 1017.9 |
| 20260506062253 | 12 | 231 | 0.0 | 0.0 | 0.00 | 0.03 | 0.03 | 92 | 1017.7 |
| 20260506061744 | 12 | 232 | 0.0 | 0.0 | 0.00 | 0.03 | 0.03 | 93 | 1017.5 |
| 20260506061241 | 12 | 227 | 0.0 | 0.0 | 0.00 | 0.03 | 0.03 | 93 | 1017.5 |
| 20260506060740 | 12 | 231 | 0.0 | 0.0 | 0.00 | 0.03 | 0.03 | 93 | 1017.6 |
| 20260506060237 | 12 | 220 | 0.0 | 0.0 | 0.00 | 0.03 | 0.03 | 93 | 1017.6 |
| 20260506051209 | 12 | 221 | 0.0 | 0.0 | 0.00 | 0.03 | 0.03 | 90 | 1017.1 |
| 20260506050707 | 12 | 227 | 0.0 | 0.0 | 0.00 | 0.03 | 0.03 | 90 | 1017.0 |
| 20260506050204 | 12 | 208 | 0.0 | 0.0 | 0.00 | 0.03 | 0.03 | 90 | 1016.9 |
| 20260506044655 | 12 | 225 | 0.0 | 0.0 | 0.00 | 0.03 | 0.03 | 91 | 1016.9 |
| 20260506044151 | 12 | 221 | 0.0 | 0.0 | 0.00 | 0.03 | 0.03 | 91 | 1016.7 |
| 20260506043649 | 12 | 211 | 0.0 | 0.0 | 0.00 | 0.03 | 0.03 | 91 | 1016.8 |
| 20260506043146 | 12 | 211 | 0.0 | 0.0 | 0.00 | 0.03 | 0.03 | 91 | 1016.8 |
| 20260506042646 | 12 | 204 | 0.0 | 0.0 | 0.00 | 0.03 | 0.03 | 90 | 1016.7 |
| 20260506042143 | 12 | 202 | 0.0 | 0.0 | 0.00 | 0.03 | 0.03 | 90 | 1016.8 |
| 20260506041641 | 12 | 225 | 0.0 | 0.0 | 0.00 | 0.03 | 0.03 | 90 | 1016.8 |
| 20260506041137 | 12 | 224 | 0.0 | 0.0 | 0.00 | 0.03 | 0.03 | 90 | 1016.5 |
| 20260506040635 | 12 | 224 | 0.0 | 0.0 | 0.00 | 0.03 | 0.03 | 90 | 1016.5 |
| 20260506040132 | 12 | 220 | 0.0 | 0.0 | 0.00 | 0.03 | 0.03 | 90 | 1016.3 |
| 20260506035629 | 12 | 212 | 0.0 | 0.0 | 0.00 | 0.03 | 0.03 | 90 | 1016.2 |
| 20260506035126 | 12 | 178 | 1.6 | 3.2 | 0.00 | 0.03 | 0.03 | 90 | 1016.1 |
| 20260506034623 | 12 | 183 | 0.0 | 1.6 | 0.00 | 0.03 | 0.03 | 91 | 1016.1 |
| 20260506034120 | 12 | 228 | 0.0 | 0.0 | 0.00 | 0.03 | 0.03 | 92 | 1016.0 |
| 20260506033617 | 12 | 205 | 1.6 | 1.6 | 0.00 | 0.03 | 0.03 | 91 | 1016.0 |
| 20260506033114 | 12 | 167 | 1.6 | 1.6 | 0.00 | 0.03 | 0.03 | 91 | 1016.1 |
| 20260506032611 | 12 | 170 | 1.6 | 1.6 | 0.00 | 0.03 | 0.03 | 90 | 1016.1 |
| 20260506032108 | 12 | 182 | 0.0 | 0.0 | 0.00 | 0.03 | 0.03 | 90 | 1016.1 |
| 20260506031605 | 12 | 212 | 0.0 | 1.6 | 0.00 | 0.03 | 0.03 | 88 | 1016.1 |
| 20260506031101 | 12 | 200 | 0.0 | 1.6 | 0.00 | 0.03 | 0.03 | 88 | 1015.8 |
| 20260506030600 | 12 | 212 | 1.6 | 1.6 | 0.00 | 0.03 | 0.03 | 89 | 1015.8 |
| 20260506030057 | 12 | 214 | 0.0 | 3.2 | 0.00 | 0.03 | 0.03 | 90 | 1015.7 |
| 20260506025554 | 12 | 196 | 0.0 | 3.2 | 0.00 | 0.03 | 0.03 | 89 | 1015.7 |
| 20260506025049 | 12 | 172 | 0.0 | 0.0 | 0.00 | 0.03 | 0.03 | 89 | 1015.5 |
| 20260506024547 | 12 | 157 | 1.6 | 1.6 | 0.00 | 0.03 | 0.03 | 88 | 1015.5 |
| 20260506024043 | 12 | 189 | 0.0 | 1.6 | 0.00 | 0.03 | 0.03 | 87 | 1015.3 |
| 20260506023539 | 12 | 163 | 0.0 | 3.2 | 0.00 | 0.03 | 0.03 | 87 | 1015.4 |
| 20260506023037 | 12 | 173 | 1.6 | 3.2 | 0.00 | 0.03 | 0.03 | 88 | 1015.4 |
| 20260506022534 | 13 | 149 | 1.6 | 3.2 | 0.00 | 0.03 | 0.03 | 88 | 1015.5 |
| 20260506022032 | 13 | 194 | 0.0 | 3.2 | 0.00 | 0.03 | 0.03 | 88 | 1015.3 |
| 20260506021529 | 13 | 171 | 0.0 | 3.2 | 0.00 | 0.03 | 0.03 | 87 | 1015.1 |
| 20260506021026 | 13 | 153 | 0.0 | 3.2 | 0.00 | 0.03 | 0.03 | 87 | 1015.3 |
| 20260506020524 | 13 | 197 | 0.0 | 3.2 | 0.00 | 0.03 | 0.03 | 86 | 1015.2 |
| 20260506020021 | 13 | 221 | 0.0 | 4.8 | 0.00 | 0.03 | 0.03 | 86 | 1014.9 |
| 20260506015518 | 13 | 151 | 1.6 | 3.2 | 0.00 | 0.03 | 0.03 | 86 | 1014.9 |
| 20260506015015 | 13 | 153 | 0.0 | 4.8 | 0.00 | 0.03 | 0.03 | 85 | 1014.9 |
| 20260506014513 | 13 | 149 | 1.6 | 6.4 | 0.00 | 0.03 | 0.03 | 85 | 1014.9 |
| 20260506014008 | 13 | 181 | 3.2 | 6.4 | 0.00 | 0.03 | 0.03 | 85 | 1015.0 |
| 20260506013507 | 13 | 170 | 1.6 | 4.8 | 0.00 | 0.03 | 0.03 | 84 | 1014.8 |
| 20260506013003 | 13 | 145 | 1.6 | 6.4 | 0.00 | 0.03 | 0.03 | 84 | 1015.0 |
| 20260506012459 | 13 | 189 | 1.6 | 6.4 | 0.00 | 0.03 | 0.03 | 84 | 1014.9 |
| 20260506011956 | 13 | 152 | 1.6 | 4.8 | 0.00 | 0.03 | 0.03 | 83 | 1015.2 |
| 20260506011453 | 13 | 105 | 3.2 | 6.4 | 0.00 | 0.03 | 0.03 | 82 | 1015.0 |
| 20260506010950 | 14 | 148 | 1.6 | 4.8 | 0.00 | 0.03 | 0.03 | 83 | 1015.1 |
| 20260506010449 | 13 | 196 | 1.6 | 3.2 | 0.00 | 0.03 | 0.03 | 83 | 1015.0 |
| 20260506005945 | 14 | 203 | 0.0 | 1.6 | 0.00 | 0.03 | 0.03 | 81 | 1015.1 |
| 20260506005444 | 14 | 163 | 0.0 | 1.6 | 0.00 | 0.03 | 0.03 | 79 | 1015.0 |
| 20260506004944 | 14 | 226 | 0.0 | 1.6 | 0.00 | 0.03 | 0.03 | 81 | 1015.1 |
| 20260506004442 | 14 | 189 | 0.0 | 1.6 | 0.00 | 0.03 | 0.03 | 81 | 1015.0 |
| 20260506003937 | 14 | 151 | 1.6 | 4.8 | 0.00 | 0.03 | 0.03 | 78 | 1015.0 |
| 20260506003434 | 14 | 164 | 0.0 | 1.6 | 0.00 | 0.03 | 0.03 | 80 | 1015.1 |
| 20260506002931 | 14 | 163 | 1.6 | 1.6 | 0.00 | 0.03 | 0.03 | 81 | 1015.0 |
| 20260506002427 | 14 | 192 | 1.6 | 6.4 | 0.00 | 0.03 | 0.03 | 81 | 1014.8 |
| 20260506001922 | 14 | 154 | 1.6 | 3.2 | 0.00 | 0.03 | 0.03 | 83 | 1015.0 |
| 20260506001420 | 14 | 202 | 0.0 | 1.6 | 0.00 | 0.03 | 0.03 | 80 | 1014.7 |
| 20260506000917 | 14 | 151 | 1.6 | 1.6 | 0.00 | 0.03 | 0.03 | 80 | 1014.5 |
| 20260506000416 | 13 | 156 | 0.0 | 1.6 | 0.00 | 0.03 | 0.03 | 81 | 1014.8 |
| 20260505235911 | 14 | 199 | 1.6 | 4.8 | 0.00 | 0.03 | 0.03 | 79 | 1014.5 |
| 20260505235409 | 14 | 188 | 1.6 | 3.2 | 0.00 | 0.03 | 0.03 | 80 | 1014.8 |
| 20260505234906 | 14 | 154 | 0.0 | 3.2 | 0.00 | 0.03 | 0.03 | 79 | 1014.8 |
| 20260505234403 | 14 | 217 | 0.0 | 1.6 | 0.00 | 0.03 | 0.03 | 80 | 1014.7 |
| 20260505233900 | 15 | 176 | 0.0 | 1.6 | 0.00 | 0.03 | 0.03 | 80 | 1014.8 |
| 20260505233358 | 14 | 242 | 0.0 | 0.0 | 0.00 | 0.03 | 0.03 | 76 | 1014.6 |
| 20260505232855 | 14 | 233 | 0.0 | 3.2 | 0.00 | 0.03 | 0.03 | 75 | 1014.7 |
| 20260505232353 | 14 | 213 | 0.0 | 1.6 | 0.00 | 0.03 | 0.03 | 78 | 1014.7 |
| 20260505231849 | 13 | 222 | 0.0 | 1.6 | 0.00 | 0.03 | 0.03 | 78 | 1014.8 |
| 20260505231347 | 14 | 235 | 1.6 | 1.6 | 0.00 | 0.03 | 0.03 | 78 | 1014.9 |
| 20260505230845 | 13 | 209 | 0.0 | 1.6 | 0.00 | 0.03 | 0.03 | 77 | 1014.7 |
| 20260505230342 | 13 | 236 | 0.0 | 1.6 | 0.00 | 0.03 | 0.03 | 78 | 1014.8 |
| 20260505225839 | 14 | 261 | 0.0 | 1.6 | 0.00 | 0.03 | 0.03 | 77 | 1014.8 |
| 20260505225336 | 13 | 245 | 0.0 | 1.6 | 0.00 | 0.03 | 0.03 | 79 | 1014.8 |
| 20260505224830 | 14 | 249 | 3.2 | 3.2 | 0.00 | 0.03 | 0.03 | 78 | 1014.9 |
| 20260505224329 | 13 | 239 | 0.0 | 0.0 | 0.00 | 0.03 | 0.03 | 80 | 1014.8 |
| 20260505223826 | 13 | 241 | 0.0 | 0.0 | 0.00 | 0.03 | 0.03 | 80 | 1014.9 |
| 20260505223323 | 13 | 268 | 1.6 | 1.6 | 0.00 | 0.03 | 0.03 | 81 | 1014.7 |
| 20260505222818 | 13 | 240 | 3.2 | 4.8 | 0.00 | 0.03 | 0.03 | 80 | 1014.9 |
| 20260505222315 | 13 | 245 | 0.0 | 4.8 | 0.00 | 0.03 | 0.03 | 81 | 1015.0 |
| 20260505221812 | 13 | 243 | 0.0 | 1.6 | 0.00 | 0.03 | 0.03 | 82 | 1014.9 |
| 20260505221308 | 14 | 272 | 1.6 | 1.6 | 0.00 | 0.03 | 0.03 | 78 | 1014.9 |
| 20260505220805 | 13 | 239 | 0.0 | 0.0 | 0.00 | 0.03 | 0.03 | 81 | 1015.0 |
| 20260505220303 | 13 | 241 | 0.0 | 1.6 | 0.00 | 0.03 | 0.03 | 82 | 1014.9 |
| 20260505215801 | 13 | 268 | 1.6 | 3.2 | 0.00 | 0.03 | 0.03 | 81 | 1015.1 |
| 20260505215258 | 13 | 241 | 0.0 | 1.6 | 0.00 | 0.03 | 0.03 | 81 | 1015.2 |
| 20260505214756 | 13 | 278 | 0.0 | 0.0 | 0.00 | 0.03 | 0.03 | 81 | 1015.1 |
| 20260505214253 | 13 | 268 | 0.0 | 3.2 | 0.00 | 0.03 | 0.03 | 82 | 1015.1 |
| 20260505213750 | 13 | 248 | 0.0 | 0.0 | 0.00 | 0.03 | 0.03 | 82 | 1015.4 |
| 20260505213248 | 13 | 240 | 1.6 | 1.6 | 0.00 | 0.03 | 0.03 | 83 | 1015.2 |
| 20260505212743 | 13 | 240 | 0.0 | 1.6 | 0.00 | 0.03 | 0.03 | 83 | 1015.2 |
| 20260505212241 | 13 | 252 | 1.6 | 4.8 | 0.00 | 0.03 | 0.03 | 81 | 1015.2 |
| 20260505211738 | 13 | 255 | 1.6 | 6.4 | 0.00 | 0.03 | 0.03 | 81 | 1015.3 |
| 20260505211235 | 14 | 256 | 1.6 | 1.6 | 0.00 | 0.03 | 0.03 | 80 | 1015.2 |
| 20260505210731 | 13 | 244 | 0.0 | 0.0 | 0.00 | 0.03 | 0.03 | 81 | 1015.1 |
| 20260505210228 | 13 | 258 | 0.0 | 0.0 | 0.00 | 0.03 | 0.03 | 82 | 1014.9 |
| 20260505205726 | 13 | 283 | 4.8 | 4.8 | 0.00 | 0.03 | 0.03 | 82 | 1015.2 |
| 20260505205224 | 13 | 245 | 0.0 | 1.6 | 0.00 | 0.03 | 0.03 | 82 | 1015.0 |
| 20260505204720 | 13 | 239 | 0.0 | 0.0 | 0.00 | 0.03 | 0.03 | 82 | 1014.9 |
| 20260505204218 | 13 | 245 | 0.0 | 1.6 | 0.00 | 0.03 | 0.03 | 83 | 1015.0 |
| 20260505203715 | 13 | 243 | 0.0 | 3.2 | 0.00 | 0.03 | 0.03 | 80 | 1015.0 |
| 20260505203212 | 13 | 262 | 1.6 | 3.2 | 0.00 | 0.03 | 0.03 | 81 | 1014.9 |
| 20260505202707 | 13 | 237 | 0.0 | 0.0 | 0.00 | 0.03 | 0.03 | 81 | 1014.9 |
| 20260505202204 | 13 | 240 | 0.0 | 0.0 | 0.00 | 0.03 | 0.03 | 80 | 1015.0 |
| 20260505201700 | 13 | 254 | 0.0 | 0.0 | 0.00 | 0.03 | 0.03 | 82 | 1015.1 |
| 20260505201158 | 13 | 283 | 1.6 | 4.8 | 0.00 | 0.03 | 0.03 | 81 | 1015.1 |
| 20260505200656 | 13 | 280 | 1.6 | 3.2 | 0.00 | 0.03 | 0.03 | 81 | 1015.0 |
| 20260505200153 | 13 | 269 | 1.6 | 1.6 | 0.00 | 0.03 | 0.03 | 82 | 1015.1 |
| 20260505195648 | 13 | 246 | 0.0 | 3.2 | 0.00 | 0.03 | 0.03 | 81 | 1015.1 |
| 20260505195146 | 13 | 233 | 0.0 | 1.6 | 0.00 | 0.03 | 0.03 | 80 | 1015.1 |
| 20260505194643 | 13 | 249 | 1.6 | 3.2 | 0.00 | 0.03 | 0.03 | 80 | 1015.2 |
| 20260505194139 | 13 | 263 | 1.6 | 3.2 | 0.00 | 0.03 | 0.03 | 82 | 1015.1 |
| 20260505193636 | 13 | 230 | 1.6 | 1.6 | 0.00 | 0.03 | 0.03 | 81 | 1015.0 |
| 20260505193133 | 13 | 274 | 1.6 | 3.2 | 0.00 | 0.03 | 0.03 | 81 | 1015.2 |
| 20260505192632 | 13 | 237 | 3.2 | 3.2 | 0.00 | 0.03 | 0.03 | 81 | 1015.2 |
| 20260505192129 | 13 | 218 | 0.0 | 1.6 | 0.00 | 0.03 | 0.03 | 83 | 1015.2 |
| 20260505191627 | 13 | 244 | 0.0 | 1.6 | 0.00 | 0.03 | 0.03 | 81 | 1015.0 |
| 20260505191125 | 13 | 255 | 1.6 | 4.8 | 0.00 | 0.03 | 0.03 | 81 | 1015.2 |
| 20260505190620 | 12 | 241 | 1.6 | 3.2 | 0.00 | 0.03 | 0.03 | 83 | 1015.1 |
| 20260505190115 | 12 | 246 | 1.6 | 3.2 | 0.00 | 0.03 | 0.03 | 83 | 1015.1 |
| 20260505185613 | 13 | 230 | 1.6 | 3.2 | 0.00 | 0.03 | 0.03 | 80 | 1015.1 |
| 20260505185109 | 13 | 239 | 0.0 | 3.2 | 0.00 | 0.03 | 0.03 | 81 | 1015.2 |
| 20260505184605 | 12 | 256 | 0.0 | 1.6 | 0.00 | 0.03 | 0.03 | 84 | 1015.0 |
| 20260505184102 | 13 | 246 | 0.0 | 1.6 | 0.00 | 0.03 | 0.03 | 83 | 1015.1 |
| 20260505183559 | 13 | 241 | 0.0 | 1.6 | 0.00 | 0.03 | 0.03 | 82 | 1015.0 |
| 20260505183057 | 13 | 243 | 0.0 | 0.0 | 0.00 | 0.03 | 0.03 | 82 | 1015.2 |
| 20260505182552 | 13 | 225 | 1.6 | 1.6 | 0.00 | 0.03 | 0.03 | 80 | 1015.0 |
| 20260505182049 | 13 | 251 | 0.0 | 4.8 | 0.00 | 0.03 | 0.03 | 80 | 1015.1 |
| 20260505181546 | 13 | 249 | 1.6 | 1.6 | 0.00 | 0.03 | 0.03 | 81 | 1015.0 |
| 20260505181044 | 13 | 206 | 1.6 | 1.6 | 0.00 | 0.03 | 0.03 | 81 | 1015.0 |
| 20260505180539 | 12 | 241 | 0.0 | 0.0 | 0.00 | 0.03 | 0.03 | 82 | 1014.8 |
| 20260505180037 | 12 | 198 | 1.6 | 3.2 | 0.00 | 0.03 | 0.03 | 82 | 1014.9 |
| 20260505175537 | 12 | 161 | 3.2 | 3.2 | 0.00 | 0.03 | 0.03 | 84 | 1014.9 |
| 20260505175034 | 12 | 204 | 0.0 | 1.6 | 0.00 | 0.03 | 0.03 | 86 | 1014.9 |
| 20260505174531 | 12 | 201 | 3.2 | 4.8 | 0.00 | 0.03 | 0.03 | 83 | 1014.8 |
| 20260505174027 | 13 | 181 | 3.2 | 4.8 | 0.00 | 0.03 | 0.03 | 84 | 1014.6 |
| 20260505173524 | 12 | 129 | 1.6 | 3.2 | 0.00 | 0.03 | 0.03 | 88 | 1014.8 |
| 20260505173021 | 12 | 229 | 1.6 | 4.8 | 0.00 | 0.03 | 0.03 | 89 | 1014.6 |
| 20260505172519 | 12 | 149 | 1.6 | 3.2 | 0.00 | 0.03 | 0.03 | 87 | 1014.7 |
| 20260505172015 | 12 | 175 | 1.6 | 1.6 | 0.00 | 0.03 | 0.03 | 93 | 1014.6 |
| 20260505171510 | 11 | 184 | 0.0 | 3.2 | 0.00 | 0.03 | 0.03 | 92 | 1014.8 |
| 20260505171007 | 11 | 149 | 0.0 | 3.2 | 0.00 | 0.03 | 0.03 | 95 | 1014.7 |
| 20260505170504 | 11 | 152 | 3.2 | 3.2 | 0.00 | 0.03 | 0.03 | 96 | 1014.7 |
| 20260505165959 | 10 | 196 | 0.0 | 4.8 | 0.00 | 0.03 | 0.03 | 95 | 1014.8 |
| 20260505165450 | 10 | 131 | 0.0 | 4.8 | 0.00 | 0.03 | 0.03 | 98 | 1014.8 |
| 20260505164946 | 10 | 226 | 0.0 | 3.2 | 0.00 | 0.03 | 0.03 | 98 | 1014.8 |
| 20260505164442 | 10 | 133 | 1.6 | 3.2 | 0.00 | 0.03 | 0.03 | 98 | 1014.7 |
| 20260505163940 | 10 | 163 | 3.2 | 4.8 | 0.00 | 0.03 | 0.03 | 98 | 1014.8 |
| 20260505163438 | 10 | 142 | 3.2 | 3.2 | 0.00 | 0.03 | 0.03 | 98 | 1014.9 |
| 20260505162937 | 10 | 156 | 0.0 | 3.2 | 0.00 | 0.03 | 0.03 | 98 | 1014.9 |
| 20260505162432 | 10 | 152 | 1.6 | 3.2 | 0.00 | 0.03 | 0.03 | 98 | 1014.6 |
| 20260505161930 | 9 | 240 | 0.0 | 0.0 | 0.00 | 0.03 | 0.03 | 98 | 1014.6 |
| 20260505161426 | 10 | 170 | 0.0 | 0.0 | 0.00 | 0.03 | 0.03 | 98 | 1014.6 |
| 20260505160924 | 10 | 166 | 0.0 | 1.6 | 0.00 | 0.03 | 0.03 | 98 | 1014.6 |
| 20260505160422 | 10 | 189 | 0.0 | 0.0 | 0.00 | 0.03 | 0.03 | 98 | 1014.5 |
| 20260505152858 | 9 | 236 | 0.0 | 1.6 | 0.00 | 0.03 | 0.03 | 98 | 1014.6 |
| 20260505152355 | 9 | 211 | 0.0 | 0.0 | 0.00 | 0.03 | 0.03 | 98 | 1014.6 |
| 20260505151855 | 8 | 213 | 0.0 | 0.0 | 0.00 | 0.03 | 0.03 | 98 | 1014.3 |
| 20260505151352 | 8 | 209 | 0.0 | 0.0 | 0.00 | 0.03 | 0.03 | 98 | 1014.4 |
| 20260505150849 | 8 | 161 | 1.6 | 1.6 | 0.00 | 0.03 | 0.03 | 98 | 1014.5 |
| 20260505150347 | 8 | 152 | 0.0 | 1.6 | 0.00 | 0.03 | 0.03 | 98 | 1014.2 |
| 20260505140316 | 8 | 185 | 0.0 | 0.0 | 0.00 | 0.03 | 0.03 | 98 | 1013.8 |
| 20260505130240 | 8 | 197 | 0.0 | 1.6 | 0.00 | 0.03 | 0.03 | 98 | 1013.6 |